TimeCDT,TemperatureF,Dew PointF,Humidity,Sea Level PressureIn,VisibilityMPH,Wind Direction,Wind SpeedMPH,Gust SpeedMPH,PrecipitationIn,Events,Conditions,WindDirDegrees,DateUTC
12:15 AM,8.6,5.0,85,30.21,10.0,Calm,Calm,-,N/A,,Clear,0,2014-03-09 06:15:00
12:35 AM,6.8,3.2,85,30.19,10.0,Calm,Calm,-,N/A,,Clear,0,2014-03-09 06:35:00
12:55 AM,8.6,3.2,79,30.19,10.0,Calm,Calm,-,N/A,,Clear,0,2014-03-09 06:55:00
1:15 AM,5.0,1.4,85,30.18,10.0,Calm,Calm,-,N/A,,Clear,0,2014-03-09 07:15:00
1:35 AM,8.6,5.0,85,30.17,10.0,South,4.6,-,N/A,,Clear,170,2014-03-09 07:35:00
1:55 AM,12.2,8.6,85,30.16,10.0,South,3.5,-,N/A,,Clear,190,2014-03-09 07:55:00
3:15 AM,14.0,10.4,86,30.15,10.0,SSW,3.5,-,N/A,,Clear,200,2014-03-09 08:15:00
3:35 AM,14.0,10.4,86,30.15,10.0,Calm,Calm,-,N/A,,Clear,0,2014-03-09 08:35:00
3:55 AM,14.0,12.2,93,30.13,10.0,SSW,4.6,-,N/A,,Clear,200,2014-03-09 08:55:00
4:15 AM,15.8,14.0,93,30.12,10.0,SSW,9.2,-,N/A,,Clear,200,2014-03-09 09:15:00
4:35 AM,17.6,14.0,86,30.11,10.0,SSW,10.4,-,N/A,,Clear,200,2014-03-09 09:35:00
4:55 AM,17.6,15.8,93,30.11,10.0,SSW,10.4,-,N/A,,Clear,200,2014-03-09 09:55:00
5:15 AM,17.6,15.8,93,30.11,10.0,SSW,9.2,-,N/A,,Clear,200,2014-03-09 10:15:00
5:35 AM,19.4,17.6,93,30.09,10.0,South,11.5,-,N/A,,Clear,190,2014-03-09 10:35:00
5:55 AM,19.4,15.8,86,30.07,10.0,South,9.2,-,N/A,,Clear,180,2014-03-09 10:55:00
6:15 AM,19.4,17.6,93,30.06,10.0,South,12.7,-,N/A,,Clear,190,2014-03-09 11:15:00
6:35 AM,21.2,17.6,86,30.06,10.0,South,12.7,-,N/A,,Clear,190,2014-03-09 11:35:00
6:55 AM,21.2,17.6,86,30.06,10.0,SSW,12.7,-,N/A,,Clear,200,2014-03-09 11:55:00
7:15 AM,21.2,17.6,86,30.04,10.0,South,12.7,-,N/A,,Clear,190,2014-03-09 12:15:00
7:35 AM,23.0,17.6,80,30.04,10.0,South,12.7,-,N/A,,Clear,190,2014-03-09 12:35:00
7:55 AM,23.0,17.6,80,30.01,10.0,South,15.0,-,N/A,,Clear,190,2014-03-09 12:55:00
8:15 AM,23.0,17.6,80,30.01,10.0,SSW,15.0,-,N/A,,Clear,200,2014-03-09 13:15:00
8:35 AM,24.8,17.6,74,30.01,10.0,South,15.0,19.6,N/A,,Clear,190,2014-03-09 13:35:00
8:55 AM,26.6,19.4,74,29.99,10.0,South,15.0,20.7,N/A,,Clear,190,2014-03-09 13:55:00
9:15 AM,26.6,19.4,74,29.97,10.0,South,18.4,-,N/A,,Clear,190,2014-03-09 14:15:00
9:35 AM,28.4,19.4,69,29.96,10.0,SSW,16.1,21.9,N/A,,Clear,200,2014-03-09 14:35:00
9:55 AM,28.4,21.2,74,29.96,10.0,SSW,16.1,21.9,N/A,,Clear,200,2014-03-09 14:55:00
10:15 AM,30.2,21.2,69,29.94,10.0,SSW,16.1,23.0,N/A,,Clear,200,2014-03-09 15:15:00
10:35 AM,32.0,23.0,69,29.93,10.0,SSW,16.1,-,N/A,,Clear,200,2014-03-09 15:35:00
10:55 AM,32.0,23.0,69,29.91,10.0,SSW,18.4,24.2,N/A,,Clear,200,2014-03-09 15:55:00
11:15 AM,33.8,26.6,75,29.89,10.0,SSW,18.4,26.5,N/A,,Clear,200,2014-03-09 16:15:00
11:35 AM,33.8,26.6,75,29.89,10.0,SSW,17.3,24.2,N/A,,Clear,200,2014-03-09 16:35:00
11:55 AM,35.6,28.4,75,29.87,10.0,SSW,18.4,-,N/A,,Clear,200,2014-03-09 16:55:00
12:10 PM,35.6,28.4,75,29.86,10.0,SSW,18.4,23.0,N/A,,Clear,200,2014-03-09 17:10:00
12:35 PM,35.6,28.4,75,29.85,10.0,SSW,19.6,25.3,N/A,,Clear,200,2014-03-09 17:35:00
12:55 PM,35.6,28.4,75,29.84,10.0,SSW,18.4,26.5,N/A,,Clear,200,2014-03-09 17:55:00
1:15 PM,37.4,28.4,70,29.84,10.0,SSW,15.0,20.7,N/A,,Clear,200,2014-03-09 18:15:00
1:35 PM,37.4,30.2,75,29.82,10.0,SSW,15.0,20.7,N/A,,Clear,200,2014-03-09 18:35:00
1:55 PM,37.4,30.2,75,29.80,10.0,SSW,17.3,23.0,N/A,,Clear,210,2014-03-09 18:55:00
2:15 PM,37.4,30.2,75,29.81,10.0,SSW,12.7,-,N/A,,Clear,210,2014-03-09 19:15:00
2:35 PM,37.4,30.2,75,29.79,10.0,SSW,13.8,-,0.01,,Clear,210,2014-03-09 19:35:00
2:50 PM,39.2,30.2,70,29.77,10.0,SSW,17.3,-,0.01,,Clear,210,2014-03-09 19:50:00
3:15 PM,39.2,30.2,70,29.76,10.0,SW,16.1,20.7,N/A,,Clear,220,2014-03-09 20:15:00
3:35 PM,39.2,32.0,75,29.76,10.0,SW,16.1,20.7,N/A,,Clear,220,2014-03-09 20:35:00
3:55 PM,39.2,32.0,75,29.76,10.0,SW,16.1,21.9,N/A,,Clear,220,2014-03-09 20:55:00
4:15 PM,39.2,32.0,75,29.75,10.0,SW,16.1,-,N/A,,Clear,220,2014-03-09 21:15:00
4:35 PM,41.0,32.0,70,29.74,10.0,SW,17.3,-,N/A,,Clear,220,2014-03-09 21:35:00
4:55 PM,41.0,32.0,70,29.74,10.0,SW,13.8,-,N/A,,Clear,220,2014-03-09 21:55:00
5:15 PM,41.0,32.0,70,29.74,10.0,SW,11.5,-,N/A,,Clear,230,2014-03-09 22:15:00
5:35 PM,41.0,32.0,70,29.74,10.0,West,3.5,-,N/A,,Clear,260,2014-03-09 22:35:00
5:55 PM,41.0,32.0,70,29.74,10.0,WSW,6.9,-,N/A,,Clear,240,2014-03-09 22:55:00
6:15 PM,39.2,32.0,75,29.73,10.0,SW,9.2,-,N/A,,Clear,220,2014-03-09 23:15:00
6:35 PM,41.0,32.0,70,29.73,10.0,SW,6.9,-,N/A,,Clear,230,2014-03-09 23:35:00
6:55 PM,39.2,32.0,75,29.74,10.0,SW,5.8,-,N/A,,Clear,230,2014-03-09 23:55:00
7:15 PM,39.2,32.0,75,29.74,10.0,SW,8.1,-,N/A,,Clear,230,2014-03-10 00:15:00
7:35 PM,37.4,32.0,81,29.74,10.0,SW,3.5,-,N/A,,Clear,220,2014-03-10 00:35:00
7:55 PM,37.4,32.0,81,29.75,10.0,Calm,Calm,-,N/A,,Clear,0,2014-03-10 00:55:00
8:15 PM,37.4,32.0,81,29.74,10.0,SSW,3.5,-,N/A,,Clear,210,2014-03-10 01:15:00
8:35 PM,37.4,32.0,81,29.74,10.0,Calm,Calm,-,N/A,,Clear,0,2014-03-10 01:35:00
8:55 PM,37.4,32.0,81,29.74,10.0,SW,3.5,-,N/A,,Clear,220,2014-03-10 01:55:00
9:15 PM,37.4,32.0,81,29.74,10.0,Calm,Calm,-,N/A,,Scattered Clouds,0,2014-03-10 02:15:00
9:35 PM,37.4,32.0,81,29.74,10.0,Calm,Calm,-,N/A,,Overcast,0,2014-03-10 02:35:00
9:55 PM,37.4,32.0,81,29.74,10.0,SSW,3.5,-,N/A,,Overcast,210,2014-03-10 02:55:00
10:15 PM,35.6,32.0,87,29.74,10.0,Calm,Calm,-,N/A,,Overcast,0,2014-03-10 03:15:00
10:35 PM,37.4,32.0,81,29.74,10.0,Calm,Calm,-,N/A,,Overcast,0,2014-03-10 03:35:00
10:55 PM,35.6,32.0,87,29.73,10.0,Calm,Calm,-,N/A,,Mostly Cloudy,0,2014-03-10 03:55:00
11:15 PM,35.6,33.8,93,29.73,10.0,Calm,Calm,-,N/A,,Scattered Clouds,0,2014-03-10 04:15:00
11:35 PM,35.6,32.0,87,29.72,10.0,Calm,Calm,-,N/A,,Mostly Cloudy,0,2014-03-10 04:35:00
11:55 PM,35.6,33.8,93,29.72,10.0,WSW,3.5,-,N/A,,Mostly Cloudy,240,2014-03-10 04:55:00
12:15 AM,37.4,32.0,81,29.71,10.0,SSW,3.5,-,N/A,,Mostly Cloudy,210,2014-03-10 05:15:00
12:35 AM,37.4,33.8,87,29.70,10.0,SW,3.5,-,N/A,,Scattered Clouds,220,2014-03-10 05:35:00
12:55 AM,37.4,32.0,81,29.70,10.0,Calm,Calm,-,N/A,,Scattered Clouds,0,2014-03-10 05:55:00